KZ-1A R/B

Last updated on Fri Dec 06 2024 00:02:06 GMT+0000 (Coordinated Universal Time)

1 62191U 24228B 24340.50398185 .33852827 12798-4 48036-3 0 9992 2 62191 46.0912 100.6897 0134994 6.8812 42.8048 16.25337093 138

Satellite not in orbit